Location: Unspecified
(42.3650°N, 71.1030°W)
Time: 09:04:46
(UTC+00:00)

Tiangong - Pass Details

Date: 30 May 2024
Orbit: 378 x 384 km, 41.5° (Epoch: 21 June)

Event Time Altitude Azimuth Distance (km) Brightness Sun altitude
Exits shadow 08:04:36 - 272° (W) 1,429 0.3 -10.6°
Reaches altitude 10° 08:04:42 10° 272° (W) 1,385 0.3 -10.6°
Maximum altitude 08:07:47 58° 192° (SSW) 444 -2.1 -10.2°
Drops below altitude 10° 08:10:51 10° 112° (ESE) 1,383 1.0 -9.7°
Sets 08:12:56 0° 108° (ESE) 2,234 2.2 -9.5°
